QPF
0.04 0.04 0.04 0.05 0.04 0.04 0.04 0.06 0.07 0.06 0.05 0.06 0.05 0.05 0.05 0.05 0.06 0.05 0.05 0.03 0.01 0.01 0.02 0.02 0.03 0.03 0.02 0.03 0.05 0.06 0.07 0.09 0.12 0.12 0.11 0.09 0.07 0.06
0.04 0.04 0.04 0.04 0.04 0.03 0.03 0.04 0.07 0.07 0.06 0.06 0.06 0.05 0.05 0.03 0.05 0.06 0.07 0.06 0.04 0.02 0.02 0.02 0.02 0.03 0.02 0.01 0.03 0.04 0.05 0.07 0.09 0.12 0.13 0.11 0.09 0.07
0.05 0.04 0.03 0.03 0.04 0.04 0.03 0.04 0.05 0.06 0.06 0.06 0.06 0.06 0.06 0.05 0.04 0.06 0.07 0.07 0.06 0.05 0.04 0.04 0.03 0.03 0.02 0.02 0.02 0.02 0.03 0.05 0.06 0.08 0.10 0.11 0.10 0.08
0.05 0.04 0.03 0.02 0.03 0.03 0.04 0.04 0.04 0.04 0.05 0.05 0.05 0.06 0.06 0.05 0.06 0.06 0.05 0.06 0.07 0.06 0.05 0.04 0.03 0.03 0.02 0.02 0.01 0.01 0.02 0.03 0.04 0.05 0.06 0.07 0.09 0.08
0.05 0.05 0.05 0.04 0.04 0.04 0.04 0.04 0.04 0.04 0.05 0.05 0.05 0.06 0.05 0.05 0.06 0.06 0.05 0.05 0.06 0.05 0.05 0.04 0.03 0.02 0.01 0.02 0.02 0.01 0.01 0.02 0.03 0.05 0.06 0.05 0.06 0.07
0.04 0.04 0.05 0.05 0.05 0.05 0.04 0.04 0.04 0.05 0.04 0.05 0.06 0.06 0.06 0.05 0.05 0.05 0.05 0.04 0.04 0.05 0.04 0.02 0.02 0.02 0.01 0.01 0.01 0.01 0.01 0.02 0.02 0.03 0.05 0.05 0.05 0.05
0.03 0.02 0.03 0.03 0.02 0.04 0.03 0.04 0.04 0.04 0.05 0.04 0.06 0.08 0.07 0.05 0.05 0.05 0.05 0.05 0.05 0.05 0.05 0.04 0.03 0.02 0.01 0.01 0.01 0.01 0.01 0.01 0.02 0.03 0.03 0.04 0.05 0.05
0.02 0.02 0.02 0.02 0.01 0.02 0.02 0.02 0.03 0.04 0.04 0.05 0.07 0.07 0.08 0.07 0.07 0.06 0.05 0.04 0.04 0.05 0.04 0.05 0.06 0.04 0.03 0.02 0.01 0.01 0.01 0.01 0.02 0.02 0.03 0.04 0.04 0.05
0.02 0.03 0.03 0.02 0.02 0.02 0.02 0.02 0.02 0.03 0.03 0.04 0.06 0.06 0.08 0.09 0.07 0.07 0.06 0.06 0.05 0.04 0.04 0.04 0.05 0.05 0.05 0.04 0.03 0.02 0.02 0.01 0.01 0.02 0.02 0.03 0.04 0.05
0.02 0.03 0.04 0.04 0.04 0.04 0.03 0.03 0.02 0.02 0.02 0.02 0.04 0.06 0.07 0.09 0.08 0.06 0.06 0.05 0.04 0.04 0.04 0.03 0.04 0.05 0.05 0.05 0.04 0.03 0.03 0.02 0.02 0.02 0.03 0.03 0.04 0.05
0.02 0.02 0.03 0.04 0.04 0.04 0.05 0.04 0.04 0.04 0.02 0.01 0.02 0.03 0.03 0.05 0.07 0.06 0.05 0.03 0.03 0.02 0.03 0.03 0.03 0.04 0.05 0.04 0.04 0.04 0.03 0.02 0.02 0.02 0.03 0.03 0.04 0.06
0.02 0.01 0.01 0.01 0.01 0.02 0.05 0.06 0.04 0.04 0.02 0.01 0.01 0.01 0.01 0.02 0.03 0.05 0.06 0.06 0.06 0.04 0.03 0.03 0.03 0.04 0.04 0.03 0.04 0.04 0.03 0.03 0.03 0.03 0.03 0.04 0.06 0.06
0.02 0.02 0.01 0.00 0.00 0.00 0.02 0.04 0.04 0.04 0.05 0.03 0.02 0.03 0.03 0.03 0.03 0.03 0.06 0.08 0.08 0.06 0.05 0.05 0.03 0.04 0.05 0.05 0.04 0.05 0.04 0.03 0.03 0.02 0.02 0.03 0.04 0.05
0.01 0.01 0.01 0.00 0.00 0.00 0.00 0.01 0.01 0.03 0.05 0.05 0.04 0.04 0.04 0.05 0.04 0.04 0.05 0.07 0.08 0.07 0.05 0.05 0.04 0.04 0.05 0.05 0.05 0.06 0.07 0.06 0.04 0.03 0.03 0.03 0.03 0.03
0.00 0.00 0.00 0.00 0.00 0.00 0.00 0.00 0.00 0.01 0.02 0.03 0.04 0.03 0.04 0.05 0.06 0.05 0.05 0.06 0.06 0.05 0.04 0.04 0.04 0.04 0.05 0.05 0.05 0.06 0.07 0.07 0.07 0.05 0.05 0.04 0.04 0.04
0.00 0.00 0.00 0.00 0.00 0.00 0.01 0.01 0.01 0.02 0.02 0.02 0.02 0.02 0.02 0.03 0.03 0.03 0.03 0.04 0.05 0.06 0.06 0.05 0.05 0.05 0.06 0.06 0.06 0.06 0.07 0.08 0.08 0.07 0.07 0.06 0.05 0.04
0.00 0.01 0.01 0.01 0.01 0.01 0.01 0.01 0.01 0.01 0.01 0.02 0.02 0.02 0.02 0.03 0.03 0.03 0.03 0.03 0.03 0.04 0.05 0.07 0.07 0.06 0.05 0.05 0.05 0.05 0.05 0.07 0.08 0.08 0.08 0.07 0.06 0.05
0.00 0.00 0.01 0.00 0.00 0.00 0.01 0.01 0.01 0.01 0.01 0.01 0.01 0.01 0.01 0.01 0.02 0.03 0.03 0.03 0.03 0.03 0.03 0.04 0.05 0.05 0.04 0.03 0.03 0.03 0.04 0.04 0.06 0.08 0.08 0.07 0.05 0.05
0.00 0.00 0.00 0.00 0.00 0.00 0.00 0.00 0.00 0.01 0.01 0.02 0.01 0.01 0.01 0.01 0.01 0.02 0.03 0.03 0.03 0.03 0.03 0.03 0.03 0.03 0.03 0.03 0.03 0.03 0.02 0.03 0.03 0.04 0.05 0.05 0.04 0.03
0.00 0.00 0.00 0.00 0.00 0.00 0.00 0.00 0.00 0.00 0.00 0.00 0.01 0.01 0.01 0.00 0.01 0.01 0.01 0.02 0.02 0.02 0.02 0.03 0.04 0.03 0.03 0.03 0.03 0.02 0.02 0.02 0.03 0.03 0.03 0.04 0.04 0.05
0.00 0.00 0.00 0.00 0.00 0.00 0.00 0.00 0.00 0.00 0.00 0.01 0.01 0.01 0.01 0.01 0.00 0.00 0.01 0.01 0.01 0.01 0.01 0.02 0.03 0.03 0.03 0.03 0.02 0.02 0.02 0.02 0.02 0.03 0.03 0.04 0.04 0.04
0.00 0.00 0.00 0.00 0.00 0.00 0.00 0.00 0.00 0.00 0.00 0.00 0.00 0.00 0.00 0.00 0.00 0.00 0.00 0.01 0.01 0.01 0.01 0.01 0.02 0.02 0.02 0.02 0.02 0.02 0.02 0.02 0.02 0.02 0.02 0.02 0.03 0.03
0.00 0.00 0.00 0.00 0.00 0.00 0.00 0.00 0.00 0.00 0.00 0.00 0.00 0.00 0.00 0.00 0.00 0.00 0.00 0.00 0.01 0.01 0.01 0.01 0.01 0.02 0.02 0.02 0.02 0.02 0.02 0.02 0.01 0.01 0.01 0.02 0.02 0.02
MSLP
1011.78 1011.88 1012.02 1012.17 1012.29 1012.35 1012.35 1012.26 1012.09 1011.87 1011.61 1011.34 1011.08 1010.87 1010.72 1010.63 1010.60 1010.63 1010.72 1010.86 1011.04 1011.26 1011.50 1011.75 1012.00 1012.25 1012.49 1012.72 1012.93 1013.12 1013.32 1013.52 1013.73 1013.95 1014.20 1014.47 1014.75 1015.03
1011.85 1011.95 1012.09 1012.23 1012.36 1012.45 1012.48 1012.43 1012.32 1012.14 1011.92 1011.67 1011.43 1011.21 1011.03 1010.90 1010.82 1010.81 1010.85 1010.94 1011.08 1011.25 1011.44 1011.65 1011.86 1012.06 1012.26 1012.45 1012.63 1012.81 1012.99 1013.18 1013.38 1013.59 1013.82 1014.05 1014.29 1014.52
1011.92 1012.01 1012.14 1012.28 1012.42 1012.53 1012.59 1012.59 1012.53 1012.39 1012.21 1012.00 1011.77 1011.55 1011.36 1011.21 1011.10 1011.05 1011.05 1011.09 1011.18 1011.30 1011.44 1011.58 1011.74 1011.89 1012.04 1012.18 1012.33 1012.48 1012.64 1012.82 1013.01 1013.21 1013.41 1013.62 1013.81 1013.99
1011.99 1012.07 1012.18 1012.32 1012.47 1012.60 1012.70 1012.74 1012.71 1012.63 1012.49 1012.31 1012.11 1011.90 1011.70 1011.54 1011.41 1011.33 1011.29 1011.29 1011.33 1011.39 1011.47 1011.56 1011.64 1011.73 1011.81 1011.91 1012.01 1012.13 1012.27 1012.43 1012.61 1012.80 1012.98 1013.16 1013.32 1013.45
1012.06 1012.12 1012.22 1012.36 1012.51 1012.66 1012.78 1012.86 1012.88 1012.84 1012.74 1012.59 1012.41 1012.22 1012.04 1011.87 1011.73 1011.63 1011.57 1011.53 1011.52 1011.53 1011.54 1011.56 1011.57 1011.59 1011.61 1011.64 1011.69 1011.77 1011.88 1012.02 1012.18 1012.35 1012.52 1012.68 1012.81 1012.91
1012.12 1012.16 1012.25 1012.38 1012.53 1012.70 1012.84 1012.95 1013.00 1012.99 1012.93 1012.82 1012.67 1012.50 1012.33 1012.17 1012.04 1011.93 1011.84 1011.78 1011.73 1011.69 1011.64 1011.59 1011.54 1011.48 1011.43 1011.40 1011.39 1011.43 1011.50 1011.60 1011.74 1011.89 1012.04 1012.17 1012.28 1012.36
1012.14 1012.17 1012.24 1012.36 1012.52 1012.69 1012.84 1012.97 1013.05 1013.08 1013.05 1012.98 1012.86 1012.72 1012.57 1012.43 1012.30 1012.19 1012.10 1012.02 1011.94 1011.86 1011.76 1011.65 1011.53 1011.41 1011.30 1011.20 1011.14 1011.12 1011.14 1011.21 1011.31 1011.42 1011.55 1011.66 1011.76 1011.82
1012.12 1012.13 1012.19 1012.31 1012.45 1012.62 1012.79 1012.93 1013.03 1013.08 1013.08 1013.04 1012.95 1012.84 1012.72 1012.61 1012.50 1012.40 1012.31 1012.22 1012.13 1012.02 1011.89 1011.73 1011.56 1011.38 1011.21 1011.06 1010.94 1010.86 1010.83 1010.85 1010.90 1010.98 1011.07 1011.16 1011.23 1011.28
1012.03 1012.04 1012.10 1012.20 1012.35 1012.51 1012.68 1012.82 1012.94 1013.00 1013.03 1013.01 1012.95 1012.88 1012.79 1012.70 1012.62 1012.54 1012.47 1012.38 1012.28 1012.15 1012.00 1011.82 1011.61 1011.39 1011.17 1010.97 1010.80 1010.67 1010.58 1010.55 1010.55 1010.58 1010.62 1010.67 1010.71 1010.74
1011.89 1011.90 1011.97 1012.07 1012.21 1012.37 1012.54 1012.68 1012.79 1012.87 1012.90 1012.90 1012.87 1012.83 1012.78 1012.72 1012.67 1012.62 1012.55 1012.48 1012.38 1012.25 1012.08 1011.88 1011.65 1011.41 1011.16 1010.93 1010.71 1010.54 1010.40 1010.30 1010.25 1010.22 1010.21 1010.21 1010.21 1010.20
1011.71 1011.75 1011.83 1011.95 1012.09 1012.24 1012.39 1012.53 1012.63 1012.71 1012.75 1012.76 1012.76 1012.74 1012.71 1012.69 1012.66 1012.63 1012.59 1012.52 1012.43 1012.30 1012.13 1011.92 1011.68 1011.43 1011.16 1010.91 1010.66 1010.45 1010.27 1010.12 1010.00 1009.91 1009.84 1009.78 1009.73 1009.68
1011.52 1011.60 1011.72 1011.85 1012.00 1012.15 1012.29 1012.41 1012.51 1012.57 1012.61 1012.63 1012.64 1012.63 1012.63 1012.63 1012.62 1012.61 1012.58 1012.52 1012.43 1012.30 1012.13 1011.93 1011.69 1011.43 1011.16 1010.89 1010.64 1010.40 1010.18 1009.99 1009.82 1009.67 1009.53 1009.41 1009.29 1009.17
1011.35 1011.49 1011.65 1011.81 1011.97 1012.13 1012.26 1012.36 1012.44 1012.49 1012.52 1012.54 1012.55 1012.57 1012.58 1012.59 1012.60 1012.59 1012.57 1012.51 1012.42 1012.29 1012.12 1011.91 1011.68 1011.42 1011.16 1010.89 1010.63 1010.38 1010.14 1009.91 1009.69 1009.48 1009.28 1009.09 1008.90 1008.72
1011.23 1011.43 1011.64 1011.83 1012.02 1012.17 1012.30 1012.39 1012.46 1012.50 1012.52 1012.53 1012.55 1012.56 1012.58 1012.60 1012.61 1012.61 1012.59 1012.53 1012.43 1012.30 1012.12 1011.92 1011.68 1011.43 1011.18 1010.91 1010.65 1010.39 1010.14 1009.88 1009.62 1009.36 1009.10 1008.84 1008.58 1008.33
1011.16 1011.42 1011.67 1011.91 1012.11 1012.28 1012.41 1012.50 1012.56 1012.59 1012.60 1012.61 1012.63 1012.65 1012.67 1012.70 1012.71 1012.71 1012.69 1012.62 1012.52 1012.37 1012.19 1011.98 1011.74 1011.49 1011.24 1010.98 1010.72 1010.46 1010.19 1009.91 1009.62 1009.32 1009.00 1008.68 1008.35 1008.02
1011.12 1011.43 1011.73 1012.01 1012.25 1012.43 1012.57 1012.67 1012.72 1012.75 1012.77 1012.78 1012.80 1012.83 1012.86 1012.90 1012.92 1012.92 1012.89 1012.82 1012.70 1012.55 1012.35 1012.13 1011.89 1011.64 1011.38 1011.12 1010.86 1010.59 1010.30 1010.00 1009.68 1009.34 1008.97 1008.59 1008.19 1007.79
1011.11 1011.46 1011.80 1012.11 1012.38 1012.59 1012.75 1012.86 1012.93 1012.98 1013.01 1013.04 1013.07 1013.11 1013.16 1013.20 1013.24 1013.24 1013.21 1013.14 1013.02 1012.85 1012.65 1012.42 1012.16 1011.90 1011.63 1011.35 1011.07 1010.78 1010.48 1010.15 1009.79 1009.40 1008.99 1008.55 1008.09 1007.61
1011.09 1011.47 1011.85 1012.19 1012.49 1012.74 1012.93 1013.07 1013.17 1013.24 1013.29 1013.34 1013.40 1013.47 1013.54 1013.60 1013.65 1013.67 1013.65 1013.58 1013.46 1013.29 1013.07 1012.82 1012.55 1012.26 1011.96 1011.66 1011.35 1011.03 1010.69 1010.32 1009.92 1009.49 1009.02 1008.53 1008.01 1007.47
1011.07 1011.47 1011.86 1012.24 1012.57 1012.85 1013.08 1013.26 1013.40 1013.51 1013.60 1013.69 1013.78 1013.87 1013.97 1014.06 1014.13 1014.17 1014.16 1014.09 1013.97 1013.80 1013.57 1013.30 1013.01 1012.69 1012.35 1012.01 1011.65 1011.28 1010.89 1010.47 1010.03 1009.54 1009.03 1008.48 1007.91 1007.31
1011.02 1011.43 1011.85 1012.25 1012.62 1012.94 1013.21 1013.43 1013.62 1013.77 1013.91 1014.03 1014.16 1014.29 1014.41 1014.52 1014.61 1014.67 1014.67 1014.62 1014.50 1014.32 1014.08 1013.80 1013.47 1013.11 1012.73 1012.34 1011.93 1011.49 1011.04 1010.57 1010.06 1009.53 1008.96 1008.37 1007.75 1007.11
1010.96 1011.38 1011.81 1012.24 1012.64 1013.00 1013.32 1013.59 1013.82 1014.02 1014.20 1014.36 1014.52 1014.67 1014.82 1014.95 1015.05 1015.11 1015.12 1015.07 1014.96 1014.77 1014.52 1014.21 1013.86 1013.46 1013.03 1012.58 1012.10 1011.61 1011.09 1010.55 1009.99 1009.41 1008.80 1008.16 1007.51 1006.85
1010.88 1011.32 1011.77 1012.22 1012.66 1013.06 1013.42 1013.73 1014.01 1014.24 1014.46 1014.65 1014.82 1014.99 1015.14 1015.27 1015.38 1015.44 1015.45 1015.40 1015.27 1015.08 1014.82 1014.49 1014.10 1013.67 1013.19 1012.68 1012.15 1011.59 1011.02 1010.42 1009.81 1009.18 1008.53 1007.87 1007.20 1006.52
1010.78 1011.25 1011.73 1012.21 1012.68 1013.11 1013.51 1013.86 1014.16 1014.43 1014.66 1014.87 1015.05 1015.22 1015.36 1015.48 1015.56 1015.61 1015.60 1015.53 1015.40 1015.19 1014.91 1014.56 1014.16 1013.69 1013.18 1012.63 1012.04 1011.44 1010.81 1010.17 1009.52 1008.86 1008.19 1007.52 1006.84 1006.15
Thickness
5670 5671 5671 5673 5675 5677 5679 5679 5677 5675 5679 5689 5695 5702 5706 5709 5711 5712 5714 5716 5718 5719 5720 5721 5723 5724 5725 5726 5727 5727 5728 5728 5728 5727 5727 5726 5725 5724
5669 5669 5670 5671 5673 5675 5676 5678 5678 5676 5676 5683 5689 5696 5700 5703 5705 5707 5710 5711 5713 5714 5716 5717 5718 5719 5720 5721 5722 5723 5724 5724 5724 5724 5724 5723 5723 5722
5669 5669 5669 5670 5670 5672 5674 5675 5676 5676 5674 5679 5686 5691 5694 5696 5699 5702 5704 5706 5708 5710 5711 5712 5713 5714 5715 5716 5717 5718 5719 5720 5721 5721 5720 5720 5719 5718
5667 5667 5667 5669 5669 5670 5671 5672 5673 5675 5674 5674 5679 5684 5687 5691 5693 5696 5699 5701 5703 5705 5706 5707 5708 5709 5710 5711 5712 5713 5714 5715 5716 5717 5716 5716 5715 5715
5667 5666 5666 5667 5667 5668 5669 5670 5671 5674 5674 5673 5674 5678 5682 5685 5686 5689 5693 5695 5698 5699 5700 5702 5703 5704 5705 5706 5707 5708 5710 5711 5712 5712 5712 5712 5712 5711
5668 5667 5666 5665 5665 5666 5667 5667 5669 5669 5670 5670 5671 5673 5675 5679 5680 5680 5682 5686 5690 5694 5695 5696 5697 5698 5700 5701 5703 5704 5704 5705 5706 5707 5707 5707 5707 5707
5667 5666 5665 5665 5665 5665 5665 5664 5665 5665 5665 5665 5666 5667 5669 5671 5672 5675 5675 5678 5682 5687 5687 5689 5691 5692 5694 5695 5697 5698 5699 5700 5700 5701 5701 5701 5701 5701
5666 5665 5665 5664 5664 5664 5664 5664 5663 5661 5661 5661 5662 5663 5666 5668 5670 5671 5670 5670 5671 5679 5680 5681 5685 5686 5688 5690 5692 5693 5694 5695 5695 5695 5696 5696 5696 5696
5666 5664 5664 5665 5663 5661 5661 5662 5661 5661 5661 5660 5660 5661 5663 5665 5666 5665 5666 5666 5667 5672 5674 5674 5678 5679 5683 5685 5687 5688 5689 5689 5690 5690 5690 5690 5691 5691
5666 5665 5663 5662 5661 5659 5659 5658 5658 5659 5660 5660 5660 5661 5662 5663 5663 5663 5663 5663 5665 5668 5670 5667 5670 5673 5678 5679 5681 5683 5683 5684 5684 5684 5684 5684 5684 5684
5666 5664 5662 5660 5659 5658 5656 5655 5654 5655 5657 5658 5658 5658 5659 5660 5660 5658 5657 5656 5656 5660 5664 5663 5664 5666 5670 5673 5675 5677 5677 5678 5678 5678 5678 5678 5678 5678
5663 5662 5660 5657 5656 5655 5653 5651 5649 5650 5652 5653 5653 5654 5655 5656 5656 5655 5654 5652 5652 5653 5658 5657 5657 5658 5660 5665 5668 5669 5669 5670 5670 5671 5671 5671 5671 5670
5659 5657 5655 5654 5653 5651 5650 5647 5647 5647 5648 5648 5648 5649 5650 5650 5651 5651 5652 5650 5648 5648 5652 5651 5650 5651 5651 5653 5657 5660 5662 5663 5663 5664 5664 5665 5664 5663
5655 5653 5651 5650 5648 5647 5645 5645 5645 5644 5644 5643 5642 5642 5642 5643 5644 5645 5646 5647 5646 5646 5647 5647 5645 5644 5644 5644 5647 5651 5653 5655 5656 5657 5657 5658 5657 5657
5650 5649 5647 5645 5644 5642 5641 5640 5639 5638 5637 5636 5634 5634 5635 5636 5637 5638 5639 5640 5640 5640 5641 5641 5640 5639 5638 5638 5639 5642 5643 5646 5648 5649 5649 5649 5650 5650
5645 5644 5643 5641 5638 5636 5635 5634 5633 5631 5630 5629 5628 5629 5629 5629 5629 5629 5629 5630 5630 5630 5632 5633 5633 5632 5631 5632 5632 5633 5635 5637 5639 5640 5641 5642 5642 5643
5640 5639 5636 5634 5631 5629 5627 5626 5625 5624 5623 5622 5622 5621 5621 5621 5621 5621 5621 5621 5620 5620 5621 5623 5625 5625 5625 5625 5625 5626 5627 5628 5629 5630 5631 5632 5634 5635
5635 5631 5627 5625 5623 5620 5618 5617 5616 5614 5613 5613 5612 5611 5611 5611 5611 5612 5612 5611 5610 5610 5611 5612 5613 5614 5615 5617 5618 5617 5617 5618 5619 5620 5621 5621 5624 5626
5626 5623 5619 5617 5614 5612 5609 5607 5605 5604 5603 5602 5601 5600 5599 5599 5599 5599 5599 5599 5599 5599 5600 5600 5600 5599 5599 5601 5606 5607 5605 5607 5608 5609 5610 5611 5612 5616
5617 5614 5611 5608 5606 5603 5600 5598 5596 5594 5592 5591 5589 5588 5587 5587 5586 5586 5586 5586 5586 5587 5587 5587 5586 5586 5585 5588 5592 5596 5596 5595 5595 5596 5598 5600 5602 5605
5608 5605 5602 5599 5597 5594 5591 5589 5586 5584 5582 5580 5578 5577 5575 5574 5574 5573 5573 5574 5573 5573 5573 5573 5574 5575 5576 5578 5580 5583 5584 5583 5583 5583 5584 5585 5588 5590
5599 5596 5592 5590 5587 5584 5581 5578 5576 5573 5570 5568 5566 5564 5563 5562 5561 5560 5560 5559 5559 5560 5560 5561 5562 5562 5563 5563 5564 5567 5570 5571 5572 5571 5571 5571 5571 5574
5590 5586 5582 5579 5575 5572 5569 5567 5564 5560 5557 5555 5553 5551 5550 5548 5547 5547 5546 5546 5546 5546 5546 5546 5547 5547 5548 5548 5549 5552 5554 5556 5557 5558 5558 5559 5559 5561